Weather in Berkelland

Netherlands     52°05′35″N   6°34′26″E
temp.,
°C
wind,
m/s
gust,
m/s
humid.,
%
clouds,
%
prec.,
mm/h
press.,
hPa
HPBL,
m
26 june, sun
sun2623:00+18wsw4789100 1.3 1012143
02:00+17ssw2394100 3.3 101261
05:00+16sw379768 0.1 1013244
08:00+17sw468896 0.1 1015400
11:00+20wsw566189 0.0 10161093
14:00+21sw3553100 0.1 10161570
17:00+19sse5572100 0.0 1016403
20:00+18sse337196 0.0 1016471
27 june, mon
mon2723:00+15se2391100 0.0 101648
02:00+15se2294100 0.8 101667
05:00+15ene1196100 0.5 101539
08:00+16sw2390100 0.5 1015193
11:00+20wsw446996 0.1 1016986
14:00+22wsw675388 0.5 10171570
17:00+22wsw6749100 0.0 10181874
20:00+19wsw236772 0.0 1019134
28 june, tue
tue2823:00+17wsw22645 0.0 102038
02:00+15sw117192 0.1 102111
05:00+12sw22825 0.0 102111
08:00+16wsw12695 0.0 1022209
11:00+20ssw22520 0.0 1022946
14:00+24ssw34420 0.0 10202056
17:00+25s23375 0.0 10182236
20:00+24w115216 0.0 101831
29 june, wed
wed2923:00+18ese22639 0.0 101821
02:00+16ese347532 0.0 101747
05:00+15s228529 0.0 101611
08:00+19sse24682 0.0 1016197
11:00+24ssw33495 0.0 1016746
14:00+27ssw3440100 0.0 10152053
17:00+28sw2437100 0.0 10142405
20:00+25ese246246 0.0 1014169
30 june, thu
thu3023:00+20ese33745 0.0 101427
02:00+19e22765 0.0 101318
05:00+18e348169 0.0 101363
08:00+22sse357091 0.0 1012223
11:00+25se4560100 0.0 1012726
14:00+28se354649 0.0 1011917
17:00+30e663320 0.0 10092096
20:00+28e594550 0.0 1008424